Regional Weather Roundup
Issued by NWS State College, PA

Home | Current Version | Previous Version | Graphics & Text | Print | Product List | Glossary Off
Versions: 1 2 3 4 5 6 7 8 9 10 11 12 13 14 15 16 17 18 19 20 21 22 23 24 25 26 27 28 29 30 31 32 33 34 35 36 37 38 39 40 41 42 43 44 45 46 47 48 49 50

000
ASUS41 KCTP 202203
RWRCTP

REGIONAL WEATHER ROUNDUP
NATIONAL WEATHER SERVICE STATE COLLEGE PA
600 PM EDT THU JUL 20 2017

Note: "fair" indicates few or no clouds below 12,000 feet with no
significant weather and/or obstructions to visibility.

* = STATION THAT DOES NOT REPORT PRECIPITATION /E.G. RAIN...SNOW...ETC/
    THUNDER OR FOG.

PAZ002>004-007>009-013>016-020>023-029>032-202300-
WESTERN PENNSYLVANIA

CITY           SKY/WX    TMP DP  RH WIND       PRES   REMARKS
ERIE           SUNNY     81  70  69 W9G20     29.94F
MEADVILLE      CLOUDY    84  68  58 W9        29.98S
FRANKLIN*      CLOUDY    81  72  74 W6        29.99S
NEW CASTLE     FAIR      82  74  76 W6        29.98F
BEAVER COUNTY  CLOUDY    81  72  74 N7        29.98S
BUTLER*        CLOUDY    75  70  83 W8        30.00R THUNDER
PITTSBURGH INT LGT RAIN  76  72  87 SW14      30.00R
PITTSBURGH     LGT RAIN  75  67  76 SW8       29.99R VSB 1
INDIANA*       MOSUNNY   84  70  61 W7        30.01S
LATROBE        MOSUNNY   86  70  58 W17       29.99F
WASHINGTON CO* PTSUNNY   73  70  88 SW5       30.02R
$$

PAZ004>006-010>012-017>019-024>028-033>037-041-042-045-046-049>053-202300-
CENTRAL PENNSYLVANIA

CITY           SKY/WX    TMP DP  RH WIND       PRES   REMARKS
BRADFORD       MOSUNNY   83  67  58 W12       29.98F
DUBOIS         CLOUDY    73  69  87 SW6       29.99F
CLEARFIELD     TSTM      73  70  90 W9G22     29.99R FOG
JOHNSTOWN      MOSUNNY   82  66  58 W13       30.04F
ALTOONA        PTSUNNY   84  68  58 W9        29.99F
STATE COLLEGE  MOSUNNY   84  70  61 W13       29.95F
WILLIAMSPORT   PTSUNNY   82  68  62 NE7G20    29.88R
SELINSGROVE    SUNNY     89  71  55 MISG      29.89F HX  95
FT INDIANTOWN  PTSUNNY   91  70  49 W16       29.90F HX  96
CAPITAL CITY   SUNNY     92  67  43 W10       29.90S HX  95
HARRISBURG     PTSUNNY   90  72  55 W10       29.89S HX  97
YORK           SUNNY     90  71  53 SW6       29.91F HX  96
$$

PAZ038>040-043-044-047-048-054-055-060>062-067>071-202300-
EASTERN PENNSYLVANIA

CITY           SKY/WX    TMP DP  RH WIND       PRES   REMARKS
SCRANTON       HVY RAIN  72  71  97 NE12G25   29.95R VSB 1
MOUNT POCONO   CLOUDY    78  67  68 SW6       29.97F
ALLENTOWN      PTSUNNY   91  69  48 SW14G21   29.88F HX  96
QUAKERTOWN*    PTCLDY    90  72  55 SW3       29.91F HX  96
READING        MOSUNNY   91  72  53 W13       29.88F HX  98
LANCASTER      MOSUNNY   93  70  46 SW13G20   29.89F HX  99
COATESVILLE    PTCLDY    88  73  62 SW7       29.93F HX  96
POTTSTOWN      MOSUNNY   89  71  55 SW8       29.91F HX  95
BLUE BELL      MOSUNNY   88  70  55 SW8       29.90F
DOYLESTOWN     MOSUNNY   91  70  49 SW6       29.88F HX  96
WILLOW GROVE   NOT AVBL
NORTH PHILA    MOSUNNY   94  70  45 MISG      29.89F HX 100
PHILADELPHIA   PTSUNNY   94  68  42 SW15      29.88F HX  98
$$



USA.gov is the U.S. government's official web portal to all federal, state and local government web resources and services.